User: anonymous
Location: Albany
(35.0000°S, 118.0000°E)
Time: 16:14:15
(UTC-04:00)
Language:

Cosmos 1933 - Orbit

View from above orbital plane
View from above orbital plane
View from above satellite
View from above satellite

Ground track
Ground track

The orbit data is extracted from the following two-line orbital elements,

1 18958U 88020A   14242.44120248  .00000971  00000-0  74276-4 0  4045
2 18958 082.5327 008.5109 0013439 149.7340 210.4663 15.00746787438115
Epoch (UTC): 30 August 2014 10:35:19
Eccentricity: 0.0013439
inclination: 82.5327°
perigee height: 555 km
apogee height: 574 km
right ascension of ascending node: 8.5109°
argument of perigee: 149.7340°
revolutions per day: 15.00746787
mean anomaly at epoch: 210.4663°
orbit number at epoch: 43811

The dashed part of the orbit path shows where the satellite is in the earth's shadow,  

DLR